{"data":{"norad_id":57615,"intl_designator":"2023-119P","name":"STARLINK-30246","alt_names":[],"object_type":"PAYLOAD","status":"ACTIVE","operator":null,"country":"US","launch_date":"2023-08-11","launch_site_code":"AFETR","launch_vehicle":null,"mission":null,"orbit_class":"UNKNOWN","rcs_meters":null,"size_class":null,"mass_kg":null,"dimensions":null,"purposes":["comms"],"wikipedia_slug":null,"has_3d_model":false,"image_url":null,"decayed_at":null,"tle_current":{"epoch":"2026-09-20T17:20:13.135200Z","epoch_age_seconds":108473,"freshness":"FRESH","line1":"1 57615U 23119P   26263.72237425  .00042328  00000+0  13030-2 0  9998","line2":"2 57615  42.9982  58.4281 0008735 296.5494  63.4464 15.32924591172930","mean_motion":15.32924591,"eccentricity":0.0008735,"inclination_deg":42.9982,"raan_deg":58.4281,"arg_perigee_deg":296.5494,"mean_anomaly_deg":63.4464,"bstar":0.001303,"rev_number":17293,"period_min":93.938084655594,"perigee_km":461.11267603366,"apogee_km":473.07129106793,"semimajor_km":6845.2289835508,"source":"CELESTRAK","updated_at":"2026-09-21T09:00:33.642632Z"}}}